Time,TemperatureF,DewpointF,PressureIn,WindDirection,WindDirectionDegrees,WindSpeedMPH,WindSpeedGustMPH,Humidity,HourlyPrecipIn,Conditions,Clouds,dailyrainin,SoftwareType,DateUTC
2013-04-10 00:04:00,46.4,32.4,30.12,SSW,203,0.8,1.8,58,0.00,,,0.00,WUHU216HW,2013-04-10 07:04:00,
2013-04-10 00:09:00,46.4,32.0,30.12,East,90,0.4,1.8,57,0.00,,,0.00,WUHU216HW,2013-04-10 07:09:00,
2013-04-10 00:14:00,46.4,32.0,30.12,East,90,0.0,1.1,57,0.00,,,0.00,WUHU216HW,2013-04-10 07:14:00,
2013-04-10 00:19:00,46.3,31.8,30.12,East,90,0.0,1.1,57,0.00,,,0.00,WUHU216HW,2013-04-10 07:19:00,
2013-04-10 00:24:00,45.9,31.1,30.13,East,90,0.0,0.0,56,0.00,,,0.00,WUHU216HW,2013-04-10 07:24:00,
2013-04-10 00:29:00,45.7,30.9,30.13,South,180,0.0,0.0,56,0.00,,,0.00,WUHU216HW,2013-04-10 07:29:00,
2013-04-10 00:35:00,45.7,29.1,30.13,SW,225,0.0,0.0,52,0.00,,,0.00,WUHU216HW,2013-04-10 07:35:00,
2013-04-10 00:40:00,45.4,26.2,30.13,SW,225,0.0,0.0,47,0.00,,,0.00,WUHU216HW,2013-04-10 07:40:00,
2013-04-10 00:45:00,45.4,27.3,30.13,SW,225,0.0,0.0,49,0.00,,,0.00,WUHU216HW,2013-04-10 07:45:00,
2013-04-10 00:50:00,45.2,27.6,30.13,SW,225,0.0,0.0,50,0.00,,,0.00,WUHU216HW,2013-04-10 07:50:00,
2013-04-10 00:55:00,45.0,27.6,30.13,SW,225,0.0,0.0,50,0.00,,,0.00,WUHU216HW,2013-04-10 07:55:00,
2013-04-10 01:00:00,45.0,27.6,30.13,SW,225,0.0,0.0,50,0.00,,,0.00,WUHU216HW,2013-04-10 08:00:00,
2013-04-10 01:05:00,45.0,27.0,30.13,SW,225,0.0,0.0,49,0.00,,,0.00,WUHU216HW,2013-04-10 08:05:00,
2013-04-10 01:10:00,45.0,27.0,30.12,West,270,0.0,0.0,49,0.00,,,0.00,WUHU216HW,2013-04-10 08:10:00,
2013-04-10 01:15:00,45.0,25.9,30.12,West,270,0.0,0.0,47,0.00,,,0.00,WUHU216HW,2013-04-10 08:15:00,
2013-04-10 01:20:00,45.0,25.9,30.12,SW,225,0.0,0.0,47,0.00,,,0.00,WUHU216HW,2013-04-10 08:20:00,
2013-04-10 01:25:00,45.0,22.2,30.12,SW,225,0.0,0.0,40,0.00,,,0.00,WUHU216HW,2013-04-10 08:25:00,
2013-04-10 01:30:00,44.8,23.6,30.12,SW,225,0.0,0.0,43,0.00,,,0.00,WUHU216HW,2013-04-10 08:30:00,
2013-04-10 01:35:00,44.8,24.7,30.12,SW,225,0.0,0.0,45,0.00,,,0.00,WUHU216HW,2013-04-10 08:35:00,
2013-04-10 01:40:00,44.6,23.4,30.12,SW,225,0.0,0.0,43,0.00,,,0.00,WUHU216HW,2013-04-10 08:40:00,
2013-04-10 01:45:00,44.6,22.9,30.12,SSW,203,1.2,2.0,42,0.00,,,0.00,WUHU216HW,2013-04-10 08:45:00,
2013-04-10 01:51:00,44.5,22.7,30.12,South,171,1.0,2.0,42,0.00,,,0.00,WUHU216HW,2013-04-10 08:51:00,
2013-04-10 01:56:00,44.6,22.9,30.11,SSE,158,0.3,1.8,42,0.00,,,0.00,WUHU216HW,2013-04-10 08:56:00,
2013-04-10 02:01:00,44.6,22.9,30.12,East,90,0.5,1.1,42,0.00,,,0.00,WUHU216HW,2013-04-10 09:01:00,
2013-04-10 02:06:00,44.6,23.4,30.11,East,90,0.4,1.1,43,0.00,,,0.00,WUHU216HW,2013-04-10 09:06:00,
2013-04-10 02:11:00,44.6,22.9,30.11,East,90,0.7,0.9,42,0.00,,,0.00,WUHU216HW,2013-04-10 09:11:00,
2013-04-10 02:17:00,44.5,23.2,30.11,East,90,0.0,0.9,43,0.00,,,0.00,WUHU216HW,2013-04-10 09:17:00,
2013-04-10 02:22:00,44.5,23.2,30.11,East,90,0.0,0.4,43,0.00,,,0.00,WUHU216HW,2013-04-10 09:22:00,
2013-04-10 02:27:00,44.5,23.2,30.11,East,90,0.0,0.0,43,0.00,,,0.00,WUHU216HW,2013-04-10 09:27:00,
2013-04-10 02:32:00,44.3,22.5,30.11,East,90,0.6,1.1,42,0.00,,,0.00,WUHU216HW,2013-04-10 09:32:00,
2013-04-10 02:37:00,44.3,22.5,30.10,West,270,0.6,1.1,42,0.00,,,0.00,WUHU216HW,2013-04-10 09:37:00,
2013-04-10 02:42:00,44.1,21.9,30.11,West,270,0.5,1.1,41,0.00,,,0.00,WUHU216HW,2013-04-10 09:42:00,
2013-04-10 02:47:00,44.1,22.4,30.11,West,270,0.0,0.9,42,0.00,,,0.00,WUHU216HW,2013-04-10 09:47:00,
2013-04-10 02:52:00,43.9,22.2,30.11,West,270,0.0,0.2,42,0.00,,,0.00,WUHU216HW,2013-04-10 09:52:00,
2013-04-10 02:57:00,43.7,22.6,30.11,West,270,0.0,0.0,43,0.00,,,0.00,WUHU216HW,2013-04-10 09:57:00,
2013-04-10 03:02:00,43.7,22.6,30.10,West,270,1.1,1.1,43,0.00,,,0.00,WUHU216HW,2013-04-10 10:02:00,
2013-04-10 03:07:00,43.7,22.6,30.10,West,270,0.0,1.1,43,0.00,,,0.00,WUHU216HW,2013-04-10 10:07:00,
2013-04-10 03:12:00,43.6,22.4,30.11,West,270,0.0,0.9,43,0.00,,,0.00,WUHU216HW,2013-04-10 10:12:00,
2013-04-10 03:18:00,43.6,22.4,30.10,West,270,0.0,0.0,43,0.00,,,0.00,WUHU216HW,2013-04-10 10:18:00,
2013-04-10 04:00:00,45.0,3.4,30.10,West,270,1.3,1.3,18,0.00,,,0.00,WUHU216HW,2013-04-10 11:00:00,
2013-04-10 04:05:00,45.2,-8.2,30.10,WSW,253,2.0,2.5,10,0.00,,,0.00,WUHU216HW,2013-04-10 11:05:00,
2013-04-10 04:10:00,45.4,-5.1,30.10,WSW,248,1.1,2.5,12,0.00,,,0.00,WUHU216HW,2013-04-10 11:10:00,
2013-04-10 04:15:00,45.5,-6.5,30.10,West,270,1.4,2.0,11,0.00,,,0.00,WUHU216HW,2013-04-10 11:15:00,
2013-04-10 04:20:00,45.7,-1.9,30.10,West,270,1.8,2.0,14,0.00,,,0.00,WUHU216HW,2013-04-10 11:20:00,
2013-04-10 04:25:00,45.7,-7.7,30.10,West,270,2.9,2.9,5,0.00,,,0.00,WUHU216HW,2013-04-10 11:25:00,
2013-04-10 04:30:00,46.1,-7.5,30.10,SSE,158,5.4,5.4,6,0.00,,,0.00,WUHU216HW,2013-04-10 11:30:00,
2013-04-10 04:35:00,46.3,-7.4,30.09,WSW,248,1.8,5.4,9,0.00,,,0.00,WUHU216HW,2013-04-10 11:35:00,
2013-04-10 04:40:00,46.6,-7.0,30.09,SSW,203,3.1,5.4,3,0.00,,,0.00,WUHU216HW,2013-04-10 11:40:00,
2013-04-10 04:45:00,47.0,-6.7,30.09,West,270,2.5,4.3,6,0.00,,,0.00,WUHU216HW,2013-04-10 11:45:00,
2013-04-10 04:50:00,47.2,-6.7,30.09,WSW,248,3.1,5.6,9,0.00,,,0.00,WUHU216HW,2013-04-10 11:50:00,
2013-04-10 04:55:00,47.2,-6.7,30.09,WSW,248,3.6,5.6,7,0.00,,,0.00,WUHU216HW,2013-04-10 11:55:00,
2013-04-10 05:00:00,47.2,-5.1,30.09,WSW,248,2.2,3.6,11,0.00,,,0.00,WUHU216HW,2013-04-10 12:00:00,
2013-04-10 05:05:00,47.2,-3.7,30.10,West,267,2.4,3.1,12,0.00,,,0.00,WUHU216HW,2013-04-10 12:05:00,
2013-04-10 05:10:00,47.2,-3.7,30.09,WSW,248,1.5,3.1,12,0.00,,,0.00,WUHU216HW,2013-04-10 12:10:00,
2013-04-10 05:15:00,47.2,5.2,30.09,SW,225,0.9,2.2,18,0.00,,,0.00,WUHU216HW,2013-04-10 12:15:00,
2013-04-10 05:20:00,47.2,3.7,30.10,WSW,248,1.1,2.0,17,0.00,,,0.00,WUHU216HW,2013-04-10 12:20:00,
2013-04-10 05:25:00,47.2,9.1,30.09,WSW,248,1.2,1.8,21,0.00,,,0.00,WUHU216HW,2013-04-10 12:25:00,
2013-04-10 05:31:00,47.3,9.2,30.09,WNW,293,1.8,2.0,21,0.00,,,0.00,WUHU216HW,2013-04-10 12:31:00,
2013-04-10 05:36:00,47.3,8.3,30.09,West,270,1.2,2.0,20,0.00,,,0.00,WUHU216HW,2013-04-10 12:36:00,
2013-04-10 05:41:00,47.5,8.5,30.09,WSW,248,2.0,2.0,20,0.00,,,0.00,WUHU216HW,2013-04-10 12:41:00,
2013-04-10 05:46:00,47.5,9.4,30.09,WSW,248,1.1,2.0,21,0.00,,,0.00,WUHU216HW,2013-04-10 12:46:00,
2013-04-10 05:51:00,47.5,2.5,30.10,WSW,248,2.5,3.4,16,0.00,,,0.00,WUHU216HW,2013-04-10 12:51:00,
2013-04-10 05:56:00,47.5,8.5,30.09,WSW,248,1.3,3.4,20,0.00,,,0.00,WUHU216HW,2013-04-10 12:56:00,
2013-04-10 06:01:00,47.7,4.1,30.09,WSW,248,1.9,2.9,17,0.00,,,0.00,WUHU216HW,2013-04-10 13:01:00,
2013-04-10 06:06:00,47.7,8.6,30.09,WSW,237,2.5,3.6,20,0.00,,,0.00,WUHU216HW,2013-04-10 13:06:00,
2013-04-10 06:12:00,47.9,11.5,30.09,WSW,248,2.0,3.6,23,0.00,,,0.00,WUHU216HW,2013-04-10 13:12:00,
2013-04-10 06:17:00,47.9,15.2,30.09,WSW,248,0.7,2.7,27,0.00,,,0.00,WUHU216HW,2013-04-10 13:17:00,
2013-04-10 06:22:00,47.9,16.2,30.09,WSW,248,0.4,2.0,28,0.00,,,0.00,WUHU216HW,2013-04-10 13:22:00,
2013-04-10 06:27:00,47.9,15.2,30.10,WSW,248,1.1,1.1,27,0.00,,,0.00,WUHU216HW,2013-04-10 13:27:00,
2013-04-10 06:32:00,47.9,16.2,30.09,WSW,248,0.0,1.1,28,0.00,,,0.00,WUHU216HW,2013-04-10 13:32:00,
2013-04-10 06:37:00,47.9,16.2,30.09,West,260,0.7,1.1,28,0.00,,,0.00,WUHU216HW,2013-04-10 13:37:00,
2013-04-10 06:42:00,47.9,15.2,30.09,West,270,0.8,1.1,27,0.00,,,0.00,WUHU216HW,2013-04-10 13:42:00,
2013-04-10 06:47:00,47.9,17.1,30.10,West,270,0.7,1.1,29,0.00,,,0.00,WUHU216HW,2013-04-10 13:47:00,
2013-04-10 06:52:00,47.9,18.0,30.09,SSE,158,0.4,0.7,30,0.00,,,0.00,WUHU216HW,2013-04-10 13:52:00,
2013-04-10 06:57:00,48.1,18.2,30.08,SSE,158,0.0,1.6,30,0.00,,,0.00,WUHU216HW,2013-04-10 13:57:00,
2013-04-10 07:02:00,48.2,18.4,30.09,SE,135,0.0,1.6,30,0.00,,,0.00,WUHU216HW,2013-04-10 14:02:00,
2013-04-10 07:08:00,48.2,17.5,30.08,SE,135,2.4,3.1,29,0.00,,,0.00,WUHU216HW,2013-04-10 14:08:00,
2013-04-10 07:13:00,48.4,16.7,30.08,SSW,203,2.2,4.0,28,0.00,,,0.00,WUHU216HW,2013-04-10 14:13:00,
2013-04-10 07:18:00,48.6,16.7,30.08,SSE,156,1.7,4.0,28,0.00,,,0.00,WUHU216HW,2013-04-10 14:18:00,
2013-04-10 07:23:00,48.6,16.7,30.08,SW,225,1.6,2.7,28,0.00,,,0.00,WUHU216HW,2013-04-10 14:23:00,
2013-04-10 07:28:00,49.0,18.0,30.08,SSE,155,3.1,5.4,29,0.00,,,0.00,WUHU216HW,2013-04-10 14:28:00,
2013-04-10 07:33:00,49.1,17.2,30.08,SSW,203,5.1,6.9,28,0.00,,,0.00,WUHU216HW,2013-04-10 14:33:00,
2013-04-10 07:38:00,49.3,18.3,30.08,South,180,4.5,6.9,29,0.00,,,0.00,WUHU216HW,2013-04-10 14:38:00,
2013-04-10 07:43:00,49.5,19.4,30.08,SSE,162,3.1,6.0,30,0.00,,,0.00,WUHU216HW,2013-04-10 14:43:00,
2013-04-10 07:48:00,49.7,18.6,30.08,WSW,248,3.1,6.0,29,0.00,,,0.00,WUHU216HW,2013-04-10 14:48:00,
2013-04-10 07:53:00,49.7,17.6,30.09,SSW,213,4.2,6.9,28,0.00,,,0.00,WUHU216HW,2013-04-10 14:53:00,
2013-04-10 07:58:00,49.9,19.6,30.09,SSW,192,3.8,6.9,30,0.00,,,0.00,WUHU216HW,2013-04-10 14:58:00,
2013-04-10 08:03:00,49.9,20.4,30.09,South,191,2.6,6.0,31,0.00,,,0.00,WUHU216HW,2013-04-10 15:03:00,
2013-04-10 08:08:00,50.0,21.2,30.08,SSW,193,3.3,6.5,32,0.00,,,0.00,WUHU216HW,2013-04-10 15:08:00,
2013-04-10 08:13:00,50.0,20.5,30.08,SSE,168,4.0,6.5,31,0.00,,,0.00,WUHU216HW,2013-04-10 15:13:00,
2013-04-10 08:18:00,50.0,20.5,30.08,SSE,158,5.4,6.7,31,0.00,,,0.00,WUHU216HW,2013-04-10 15:18:00,
2013-04-10 08:23:00,50.0,18.9,30.08,SE,135,6.9,6.9,29,0.00,,,0.00,WUHU216HW,2013-04-10 15:23:00,
2013-04-10 08:28:00,50.0,19.8,30.08,SE,135,5.0,7.2,30,0.00,,,0.00,WUHU216HW,2013-04-10 15:28:00,
2013-04-10 08:33:00,50.0,19.8,30.07,SW,225,3.4,7.2,30,0.00,,,0.00,WUHU216HW,2013-04-10 15:33:00,
2013-04-10 08:38:00,50.2,19.1,30.07,SSE,156,4.1,6.5,29,0.00,,,0.00,WUHU216HW,2013-04-10 15:38:00,
2013-04-10 08:43:00,50.2,20.0,30.07,SE,135,4.9,6.5,30,0.00,,,0.00,WUHU216HW,2013-04-10 15:43:00,
2013-04-10 08:48:00,50.2,20.0,30.07,SSW,203,3.4,6.5,30,0.00,,,0.00,WUHU216HW,2013-04-10 15:48:00,
2013-04-10 08:53:00,50.4,20.8,30.07,SSW,195,6.5,9.4,31,0.00,,,0.00,WUHU216HW,2013-04-10 15:53:00,
2013-04-10 08:58:00,50.4,21.5,30.08,South,191,4.8,9.4,32,0.00,,,0.00,WUHU216HW,2013-04-10 15:58:00,
2013-04-10 09:04:00,50.6,21.0,30.08,SSE,147,4.7,9.2,31,0.00,,,0.00,WUHU216HW,2013-04-10 16:04:00,
2013-04-10 09:09:00,50.8,21.2,30.07,SSE,166,4.4,7.2,31,0.00,,,0.00,WUHU216HW,2013-04-10 16:09:00,
2013-04-10 09:14:00,50.9,17.8,30.07,South,180,5.8,7.2,27,0.00,,,0.00,WUHU216HW,2013-04-10 16:14:00,
2013-04-10 09:19:00,51.3,19.1,30.07,South,177,3.6,6.3,28,0.00,,,0.00,WUHU216HW,2013-04-10 16:19:00,
2013-04-10 09:24:00,51.8,16.7,30.07,SE,135,5.1,6.3,25,0.00,,,0.00,WUHU216HW,2013-04-10 16:24:00,
2013-04-10 09:29:00,52.2,18.9,30.06,SSW,208,2.4,5.6,27,0.00,,,0.00,WUHU216HW,2013-04-10 16:29:00,
2013-04-10 09:34:00,52.7,24.9,30.06,SW,225,5.8,9.2,34,0.00,,,0.00,WUHU216HW,2013-04-10 16:34:00,
2013-04-10 09:39:00,52.9,31.5,30.05,West,270,3.6,9.2,44,0.00,,,0.00,WUHU216HW,2013-04-10 16:39:00,
2013-04-10 09:44:00,53.3,34.0,30.05,South,171,4.4,10.7,48,0.00,,,0.00,WUHU216HW,2013-04-10 16:44:00,
2013-04-10 09:49:00,53.6,35.5,30.05,SW,228,2.4,10.7,50,0.00,,,0.00,WUHU216HW,2013-04-10 16:49:00,
2013-04-10 09:54:00,53.6,36.9,30.05,SSW,196,3.0,6.5,53,0.00,,,0.00,WUHU216HW,2013-04-10 16:54:00,
2013-04-10 09:59:00,53.6,38.7,30.05,SW,228,6.2,9.4,57,0.00,,,0.00,WUHU216HW,2013-04-10 16:59:00,
2013-04-10 10:04:00,53.6,41.0,30.06,WSW,250,8.5,14.3,62,0.00,,,0.00,WUHU216HW,2013-04-10 17:04:00,
2013-04-10 10:10:00,53.5,40.3,30.06,SW,231,7.2,14.3,61,0.00,,,0.00,WUHU216HW,2013-04-10 17:10:00,
2013-04-10 10:15:00,53.3,39.3,30.07,SW,225,9.8,15.4,59,0.00,,,0.00,WUHU216HW,2013-04-10 17:15:00,
2013-04-10 10:20:00,53.3,36.6,30.07,SW,225,6.7,15.4,53,0.00,,,0.00,WUHU216HW,2013-04-10 17:20:00,
2013-04-10 10:25:00,53.1,34.4,30.07,West,270,6.3,10.1,49,0.00,,,0.00,WUHU216HW,2013-04-10 17:25:00,
2013-04-10 10:30:00,52.9,32.6,30.08,WSW,248,6.3,6.9,46,0.00,,,0.00,WUHU216HW,2013-04-10 17:30:00,
2013-04-10 10:35:00,52.9,30.9,30.07,West,270,4.3,6.9,43,0.00,,,0.00,WUHU216HW,2013-04-10 17:35:00,
2013-04-10 10:40:00,53.1,30.0,30.07,SW,223,5.8,7.2,41,0.01,,,0.01,WUHU216HW,2013-04-10 17:40:00,
2013-04-10 10:45:00,53.3,28.9,30.07,SW,217,5.5,7.8,39,0.01,,,0.01,WUHU216HW,2013-04-10 17:45:00,
2013-04-10 10:50:00,53.3,29.5,30.07,SSE,158,5.4,7.8,40,0.01,,,0.01,WUHU216HW,2013-04-10 17:50:00,
2013-04-10 10:55:00,53.3,28.9,30.07,South,186,2.6,7.6,39,0.01,,,0.01,WUHU216HW,2013-04-10 17:55:00,
2013-04-10 11:00:00,53.1,31.1,30.08,SW,229,4.2,8.5,43,0.01,,,0.01,WUHU216HW,2013-04-10 18:00:00,
2013-04-10 11:05:00,53.3,33.0,30.08,WSW,250,7.1,10.1,46,0.01,,,0.01,WUHU216HW,2013-04-10 18:05:00,
2013-04-10 11:10:00,53.3,31.8,30.08,WSW,248,7.2,10.1,44,0.01,,,0.01,WUHU216HW,2013-04-10 18:10:00,
2013-04-10 11:15:00,53.5,32.5,30.09,WSW,239,8.2,11.4,45,0.01,,,0.01,WUHU216HW,2013-04-10 18:15:00,
2013-04-10 11:20:00,53.6,31.6,30.09,SW,236,5.9,11.4,43,0.01,,,0.01,WUHU216HW,2013-04-10 18:20:00,
2013-04-10 11:26:00,53.8,31.1,30.09,WSW,240,3.3,8.1,42,0.01,,,0.01,WUHU216HW,2013-04-10 18:26:00,
2013-04-10 11:31:00,53.8,23.2,30.10,SW,225,4.0,7.6,30,0.01,,,0.01,WUHU216HW,2013-04-10 18:31:00,
2013-04-10 11:36:00,54.0,29.5,30.10,West,261,4.4,8.5,39,0.00,,,0.01,WUHU216HW,2013-04-10 18:36:00,
2013-04-10 11:41:00,54.0,29.5,30.09,WSW,248,2.0,8.5,39,0.00,,,0.01,WUHU216HW,2013-04-10 18:41:00,
2013-04-10 11:46:00,54.2,26.2,30.09,West,270,4.9,4.9,34,0.00,,,0.01,WUHU216HW,2013-04-10 18:46:00,
2013-04-10 11:51:00,54.2,30.3,30.09,WSW,251,3.8,4.9,40,0.00,,,0.01,WUHU216HW,2013-04-10 18:51:00,
2013-04-10 11:57:00,54.4,28.4,30.09,South,177,2.1,4.3,37,0.00,,,0.01,WUHU216HW,2013-04-10 18:57:00,
2013-04-10 12:02:00,54.7,28.8,30.10,SW,216,0.9,4.0,37,0.00,,,0.01,WUHU216HW,2013-04-10 19:02:00,
2013-04-10 12:07:00,54.9,26.8,30.10,WSW,248,3.4,4.0,34,0.00,,,0.01,WUHU216HW,2013-04-10 19:07:00,
2013-04-10 12:12:00,55.1,33.4,30.09,West,270,1.2,4.0,44,0.00,,,0.01,WUHU216HW,2013-04-10 19:12:00,
2013-04-10 12:17:00,55.3,33.6,30.10,WSW,251,4.5,5.6,44,0.00,,,0.01,WUHU216HW,2013-04-10 19:17:00,
2013-04-10 12:22:00,55.4,33.2,30.10,SSW,204,2.3,5.6,43,0.00,,,0.01,WUHU216HW,2013-04-10 19:22:00,
2013-04-10 12:27:00,55.8,32.9,30.09,SE,146,1.2,4.9,42,0.00,,,0.01,WUHU216HW,2013-04-10 19:27:00,
2013-04-10 12:32:00,56.3,32.3,30.10,SSW,203,4.0,4.9,40,0.00,,,0.01,WUHU216HW,2013-04-10 19:32:00,
2013-04-10 12:37:00,56.7,35.5,30.10,SSW,212,5.0,6.0,45,0.00,,,0.01,WUHU216HW,2013-04-10 19:37:00,
2013-04-10 12:42:00,56.7,36.1,30.10,South,185,4.0,6.3,46,0.00,,,0.01,WUHU216HW,2013-04-10 19:42:00,
2013-04-10 12:47:00,56.7,35.5,30.10,SSW,193,2.5,6.3,45,0.00,,,0.01,WUHU216HW,2013-04-10 19:47:00,
2013-04-10 12:52:00,57.1,35.8,30.10,NW,315,2.2,4.3,45,0.00,,,0.01,WUHU216HW,2013-04-10 19:52:00,
2013-04-10 12:57:00,57.2,38.9,30.10,SW,225,4.6,7.2,50,0.00,,,0.01,WUHU216HW,2013-04-10 19:57:00,
2013-04-10 13:03:00,56.9,43.6,30.10,West,272,5.9,12.3,61,0.00,,,0.01,WUHU216HW,2013-04-10 20:03:00,
2013-04-10 13:08:00,57.2,43.9,30.10,NW,315,5.8,12.3,61,0.00,,,0.01,WUHU216HW,2013-04-10 20:08:00,
2013-04-10 13:13:00,58.1,45.2,30.11,West,270,4.3,7.4,62,0.00,,,0.01,WUHU216HW,2013-04-10 20:13:00,
2013-04-10 13:18:00,58.7,46.9,30.11,West,270,6.3,8.3,65,0.00,,,0.01,WUHU216HW,2013-04-10 20:18:00,
2013-04-10 13:23:00,59.0,48.1,30.11,NW,315,6.9,8.3,67,0.00,,,0.01,WUHU216HW,2013-04-10 20:23:00,
2013-04-10 13:28:00,58.3,47.3,30.11,WSW,250,8.1,12.3,67,0.00,,,0.01,WUHU216HW,2013-04-10 20:28:00,
2013-04-10 13:33:00,58.0,47.4,30.11,West,270,8.5,12.3,68,0.00,,,0.01,WUHU216HW,2013-04-10 20:33:00,
2013-04-10 13:38:00,58.3,47.8,30.11,NW,315,11.2,13.4,68,0.00,,,0.01,WUHU216HW,2013-04-10 20:38:00,
2013-04-10 13:43:00,58.3,48.2,30.11,NW,315,6.9,13.4,69,0.00,,,0.01,WUHU216HW,2013-04-10 20:43:00,
2013-04-10 13:48:00,59.2,47.9,30.12,WSW,248,6.7,11.2,66,0.00,,,0.01,WUHU216HW,2013-04-10 20:48:00,
2013-04-10 13:53:00,59.4,48.9,30.12,WSW,248,11.9,12.1,68,0.00,,,0.01,WUHU216HW,2013-04-10 20:53:00,
2013-04-10 13:58:00,59.2,48.7,30.12,WSW,246,9.4,12.1,68,0.00,,,0.01,WUHU216HW,2013-04-10 20:58:00,
2013-04-10 14:04:00,59.4,48.4,30.12,West,270,8.9,11.9,67,0.00,,,0.01,WUHU216HW,2013-04-10 21:04:00,
2013-04-10 14:09:00,59.6,48.6,30.13,WSW,250,9.6,12.8,67,0.00,,,0.01,WUHU216HW,2013-04-10 21:09:00,
2013-04-10 14:14:00,59.8,49.2,30.12,WSW,248,6.3,12.8,68,0.00,,,0.01,WUHU216HW,2013-04-10 21:14:00,
2013-04-10 14:19:00,59.9,49.0,30.12,West,266,6.6,13.9,67,0.00,,,0.01,WUHU216HW,2013-04-10 21:19:00,
2013-04-10 14:24:00,60.5,48.7,30.13,West,270,9.8,13.9,65,0.00,,,0.01,WUHU216HW,2013-04-10 21:24:00,
2013-04-10 14:29:00,60.5,49.2,30.13,NNW,338,6.3,11.2,66,0.00,,,0.01,WUHU216HW,2013-04-10 21:29:00,
2013-04-10 14:34:00,59.8,48.4,30.13,WSW,248,10.3,11.9,66,0.00,,,0.01,WUHU216HW,2013-04-10 21:34:00,
2013-04-10 14:39:00,59.4,48.4,30.13,West,270,8.9,12.8,67,0.00,,,0.01,WUHU216HW,2013-04-10 21:39:00,
2013-04-10 14:44:00,59.9,49.0,30.13,WNW,297,3.4,12.8,67,0.00,,,0.01,WUHU216HW,2013-04-10 21:44:00,
2013-04-10 14:49:00,60.7,48.9,30.13,West,270,11.4,15.4,65,0.00,,,0.01,WUHU216HW,2013-04-10 21:49:00,
2013-04-10 14:54:00,60.3,48.5,30.13,WNW,282,6.7,15.4,65,0.00,,,0.01,WUHU216HW,2013-04-10 21:54:00,
2013-04-10 14:59:00,60.3,49.0,30.13,West,269,9.8,15.0,66,0.00,,,0.01,WUHU216HW,2013-04-10 21:59:00,
2013-04-10 15:04:00,60.3,49.0,30.13,West,270,11.2,15.0,66,0.00,,,0.01,WUHU216HW,2013-04-10 22:04:00,
2013-04-10 15:09:00,60.3,48.5,30.13,WSW,253,10.8,12.8,65,0.00,,,0.01,WUHU216HW,2013-04-10 22:09:00,
2013-04-10 15:15:00,60.5,49.2,30.13,West,270,7.4,12.8,66,0.00,,,0.01,WUHU216HW,2013-04-10 22:15:00,
2013-04-10 15:20:00,61.0,49.6,30.13,WSW,248,15.7,15.7,66,0.00,,,0.01,WUHU216HW,2013-04-10 22:20:00,
2013-04-10 15:25:00,61.0,49.6,30.14,West,270,8.4,15.7,66,0.00,,,0.01,WUHU216HW,2013-04-10 22:25:00,
2013-04-10 15:30:00,60.8,49.5,30.13,SW,225,7.6,15.7,66,0.00,,,0.01,WUHU216HW,2013-04-10 22:30:00,
2013-04-10 15:35:00,60.8,49.5,30.13,WSW,248,5.4,12.1,66,0.00,,,0.01,WUHU216HW,2013-04-10 22:35:00,
2013-04-10 15:40:00,60.8,49.9,30.13,NW,319,5.8,12.1,67,0.00,,,0.01,WUHU216HW,2013-04-10 22:40:00,
2013-04-10 15:45:00,60.8,49.5,30.13,SW,225,5.8,10.3,66,0.00,,,0.01,WUHU216HW,2013-04-10 22:45:00,
2013-04-10 15:50:00,60.7,48.9,30.13,West,276,7.1,10.3,65,0.00,,,0.01,WUHU216HW,2013-04-10 22:50:00,
2013-04-10 15:55:00,60.7,49.3,30.13,WNW,285,8.3,12.5,66,0.00,,,0.01,WUHU216HW,2013-04-10 22:55:00,
2013-04-10 16:00:00,60.5,49.2,30.13,WNW,293,6.3,12.5,66,0.00,,,0.01,WUHU216HW,2013-04-10 23:00:00,
2013-04-10 16:05:00,60.5,48.7,30.13,West,270,10.5,12.1,65,0.00,,,0.01,WUHU216HW,2013-04-10 23:05:00,
2013-04-10 16:10:00,60.3,48.5,30.13,WSW,255,6.1,12.1,65,0.00,,,0.01,WUHU216HW,2013-04-10 23:10:00,
2013-04-10 16:15:00,60.1,48.3,30.13,West,270,7.6,12.1,65,0.00,,,0.01,WUHU216HW,2013-04-10 23:15:00,
2013-04-10 16:20:00,60.5,48.7,30.13,WSW,248,7.8,11.4,65,0.00,,,0.01,WUHU216HW,2013-04-10 23:20:00,
2013-04-10 16:25:00,60.5,48.7,30.13,WSW,254,4.2,9.4,65,0.00,,,0.01,WUHU216HW,2013-04-10 23:25:00,
2013-04-10 16:30:00,60.1,48.3,30.13,West,270,8.5,12.1,65,0.00,,,0.01,WUHU216HW,2013-04-10 23:30:00,
2013-04-10 16:35:00,59.8,48.0,30.13,WNW,293,8.1,15.9,65,0.00,,,0.01,WUHU216HW,2013-04-10 23:35:00,
2013-04-10 16:40:00,59.4,47.6,30.13,West,277,6.9,15.9,65,0.00,,,0.01,WUHU216HW,2013-04-10 23:40:00,
2013-04-10 16:45:00,59.6,48.3,30.12,NW,311,4.4,12.8,66,0.00,,,0.01,WUHU216HW,2013-04-10 23:45:00,
2013-04-10 16:51:00,59.4,47.2,30.12,West,268,11.0,13.9,64,0.00,,,0.01,WUHU216HW,2013-04-10 23:51:00,
2013-04-10 16:56:00,59.0,47.7,30.12,West,270,12.8,14.1,66,0.00,,,0.01,WUHU216HW,2013-04-10 23:56:00,
2013-04-10 17:01:00,59.0,47.3,30.12,WSW,240,7.2,14.1,65,0.00,,,0.01,WUHU216HW,2013-04-11 00:01:00,
2013-04-10 17:06:00,59.4,47.2,30.12,North,0,7.6,13.4,64,0.00,,,0.01,WUHU216HW,2013-04-11 00:06:00,
2013-04-10 17:11:00,59.4,47.6,30.11,SW,225,6.9,12.3,65,0.00,,,0.01,WUHU216HW,2013-04-11 00:11:00,
2013-04-10 17:16:00,59.4,47.2,30.12,WNW,293,10.7,10.7,64,0.00,,,0.01,WUHU216HW,2013-04-11 00:16:00,
2013-04-10 17:22:00,58.9,46.7,30.12,NNW,338,10.1,12.8,64,0.00,,,0.01,WUHU216HW,2013-04-11 00:22:00,
2013-04-10 17:27:00,58.9,46.7,30.12,West,269,6.1,12.8,64,0.00,,,0.01,WUHU216HW,2013-04-11 00:27:00,
2013-04-10 17:32:00,59.2,47.9,30.12,WNW,282,2.8,12.1,66,0.00,,,0.01,WUHU216HW,2013-04-11 00:32:00,
2013-04-10 17:37:00,59.4,47.2,30.12,SW,225,6.3,7.8,64,0.00,,,0.01,WUHU216HW,2013-04-11 00:37:00,
2013-04-10 17:42:00,59.8,48.0,30.12,WNW,293,5.4,7.8,65,0.00,,,0.01,WUHU216HW,2013-04-11 00:42:00,
2013-04-10 17:47:00,59.2,46.2,30.12,WSW,248,10.1,11.4,62,0.00,,,0.01,WUHU216HW,2013-04-11 00:47:00,
2013-04-10 17:52:00,59.0,46.8,30.12,WSW,248,8.5,11.4,64,0.00,,,0.01,WUHU216HW,2013-04-11 00:52:00,
2013-04-10 17:57:00,58.9,46.7,30.13,NW,315,4.7,10.1,64,0.00,,,0.01,WUHU216HW,2013-04-11 00:57:00,
2013-04-10 18:02:00,58.9,46.3,30.12,NW,322,5.4,10.1,63,0.00,,,0.01,WUHU216HW,2013-04-11 01:02:00,
2013-04-10 18:07:00,58.5,45.9,30.13,WNW,293,6.0,10.1,63,0.00,,,0.01,WUHU216HW,2013-04-11 01:07:00,
2013-04-10 18:12:00,58.5,46.4,30.12,West,278,5.3,8.7,64,0.00,,,0.01,WUHU216HW,2013-04-11 01:12:00,
2013-04-10 18:17:00,58.3,46.5,30.12,West,276,2.5,8.7,65,0.00,,,0.01,WUHU216HW,2013-04-11 01:17:00,
2013-04-10 18:22:00,58.0,45.8,30.13,WNW,293,4.0,8.1,64,0.00,,,0.01,WUHU216HW,2013-04-11 01:22:00,
2013-04-10 18:27:00,57.8,45.6,30.13,NW,315,6.3,6.7,64,0.00,,,0.01,WUHU216HW,2013-04-11 01:27:00,
2013-04-10 18:32:00,57.2,44.7,30.13,West,266,5.1,10.3,63,0.00,,,0.01,WUHU216HW,2013-04-11 01:32:00,
2013-04-10 18:38:00,56.9,44.8,30.13,WNW,295,6.2,12.5,64,0.00,,,0.01,WUHU216HW,2013-04-11 01:38:00,
2013-04-10 18:43:00,56.9,44.8,30.13,North,0,6.3,12.5,64,0.00,,,0.01,WUHU216HW,2013-04-11 01:43:00,
2013-04-10 18:48:00,56.3,44.7,30.13,WNW,295,5.5,8.5,65,0.00,,,0.01,WUHU216HW,2013-04-11 01:48:00,
2013-04-10 18:53:00,56.2,44.6,30.13,WSW,248,9.8,9.8,65,0.00,,,0.01,WUHU216HW,2013-04-11 01:53:00,
2013-04-10 18:58:00,55.6,44.4,30.13,West,278,6.6,9.8,66,0.00,,,0.01,WUHU216HW,2013-04-11 01:58:00,
2013-04-10 19:03:00,54.9,43.8,30.13,West,270,9.6,11.2,66,0.00,,,0.01,WUHU216HW,2013-04-11 02:03:00,
2013-04-10 19:08:00,54.4,44.0,30.13,SW,221,6.6,11.9,68,0.00,,,0.01,WUHU216HW,2013-04-11 02:08:00,
2013-04-10 19:13:00,53.5,43.1,30.13,WNW,283,7.4,12.3,68,0.00,,,0.01,WUHU216HW,2013-04-11 02:13:00,
2013-04-10 19:18:00,52.9,43.0,30.13,West,261,7.2,12.3,69,0.00,,,0.01,WUHU216HW,2013-04-11 02:18:00,
2013-04-10 19:23:00,52.6,42.8,30.13,West,264,5.7,11.0,69,0.00,,,0.01,WUHU216HW,2013-04-11 02:23:00,
2013-04-10 19:28:00,52.2,42.4,30.14,WSW,248,7.6,10.7,69,0.00,,,0.01,WUHU216HW,2013-04-11 02:28:00,
2013-04-10 19:33:00,51.8,42.0,30.14,NW,311,3.6,10.7,69,0.00,,,0.01,WUHU216HW,2013-04-11 02:33:00,
2013-04-10 19:38:00,51.5,41.7,30.14,NNW,331,4.0,9.6,69,0.00,,,0.01,WUHU216HW,2013-04-11 02:38:00,
2013-04-10 19:43:00,51.3,41.1,30.14,WNW,285,4.1,10.1,68,0.00,,,0.01,WUHU216HW,2013-04-11 02:43:00,
2013-04-10 19:48:00,51.1,41.3,30.14,WNW,287,2.8,10.1,69,0.00,,,0.01,WUHU216HW,2013-04-11 02:48:00,
2013-04-10 19:53:00,50.8,41.1,30.15,West,281,3.4,5.4,69,0.00,,,0.01,WUHU216HW,2013-04-11 02:53:00,
2013-04-10 19:58:00,50.4,41.0,30.15,WNW,291,2.9,6.0,70,0.00,,,0.01,WUHU216HW,2013-04-11 02:58:00,
2013-04-10 20:03:00,50.0,40.7,30.15,NW,304,2.3,6.0,70,0.00,,,0.01,WUHU216HW,2013-04-11 03:03:00,
2013-04-10 20:08:00,49.9,40.5,30.15,WNW,301,1.9,6.9,70,0.00,,,0.01,WUHU216HW,2013-04-11 03:08:00,
2013-04-10 20:13:00,49.7,40.3,30.15,SE,135,6.9,6.9,70,0.00,,,0.01,WUHU216HW,2013-04-11 03:13:00,
2013-04-10 20:18:00,49.3,40.0,30.15,West,270,6.0,7.4,70,0.00,,,0.01,WUHU216HW,2013-04-11 03:18:00,
2013-04-10 20:23:00,49.0,39.6,30.16,WNW,284,5.2,8.7,70,0.00,,,0.01,WUHU216HW,2013-04-11 03:23:00,
2013-04-10 20:28:00,48.8,39.4,30.16,WNW,287,2.0,8.7,70,0.00,,,0.01,WUHU216HW,2013-04-11 03:28:00,
2013-04-10 20:34:00,48.6,39.2,30.16,NW,304,2.6,5.1,70,0.00,,,0.01,WUHU216HW,2013-04-11 03:34:00,
2013-04-10 20:39:00,48.4,39.1,30.17,West,270,1.6,5.4,70,0.00,,,0.01,WUHU216HW,2013-04-11 03:39:00,
2013-04-10 20:44:00,48.4,38.7,30.17,WSW,248,3.4,5.4,69,0.00,,,0.01,WUHU216HW,2013-04-11 03:44:00,
2013-04-10 20:49:00,48.2,38.9,30.17,NE,45,1.3,4.3,70,0.00,,,0.01,WUHU216HW,2013-04-11 03:49:00,
2013-04-10 20:54:00,48.1,38.7,30.18,WNW,293,0.4,4.3,70,0.00,,,0.01,WUHU216HW,2013-04-11 03:54:00,
2013-04-10 20:59:00,47.5,38.3,30.18,West,279,1.8,2.7,70,0.00,,,0.01,WUHU216HW,2013-04-11 03:59:00,
2013-04-10 21:00:00,47.5,38.3,30.18,WSW,248,2.5,2.7,70,0.00,,,0.01,WUHU216HW,2013-04-11 04:00:00,
2013-04-10 21:05:00,47.0,37.4,30.18,WSW,248,2.2,2.7,69,0.00,,,0.01,WUHU216HW,2013-04-11 04:05:00,
2013-04-10 21:10:00,46.8,37.2,30.18,West,260,2.8,3.6,69,0.00,,,0.01,WUHU216HW,2013-04-11 04:10:00,
2013-04-10 21:16:00,46.6,37.0,30.18,WSW,248,1.7,3.8,69,0.00,,,0.01,WUHU216HW,2013-04-11 04:16:00,
2013-04-10 21:21:00,46.6,37.5,30.19,WSW,248,1.8,3.8,70,0.00,,,0.01,WUHU216HW,2013-04-11 04:21:00,
2013-04-10 21:26:00,46.4,37.3,30.19,WSW,248,2.7,2.7,70,0.00,,,0.01,WUHU216HW,2013-04-11 04:26:00,
2013-04-10 21:31:00,46.3,36.3,30.19,West,270,4.0,4.3,68,0.00,,,0.01,WUHU216HW,2013-04-11 04:31:00,
2013-04-10 21:36:00,45.9,35.9,30.20,West,262,2.5,4.3,68,0.00,,,0.01,WUHU216HW,2013-04-11 04:36:00,
2013-04-10 21:42:00,46.1,36.1,30.20,West,262,1.5,4.0,68,0.00,,,0.01,WUHU216HW,2013-04-11 04:42:00,
2013-04-10 21:47:00,46.1,36.6,30.20,WSW,255,1.1,3.8,69,0.00,,,0.01,WUHU216HW,2013-04-11 04:47:00,
2013-04-10 21:52:00,46.1,36.1,30.21,West,270,4.7,4.7,68,0.00,,,0.01,WUHU216HW,2013-04-11 04:52:00,
2013-04-10 21:57:00,45.9,35.9,30.21,WSW,248,4.0,4.7,68,0.00,,,0.01,WUHU216HW,2013-04-11 04:57:00,
2013-04-10 22:02:00,45.9,35.6,30.21,West,270,2.5,4.7,67,0.00,,,0.01,WUHU216HW,2013-04-11 05:02:00,
2013-04-10 22:07:00,45.7,35.4,30.21,West,265,3.6,5.4,67,0.00,,,0.01,WUHU216HW,2013-04-11 05:07:00,
2013-04-10 22:12:00,45.5,35.2,30.20,West,270,1.8,5.4,67,0.00,,,0.01,WUHU216HW,2013-04-11 05:12:00,
2013-04-10 22:17:00,45.4,35.0,30.21,WSW,257,2.4,4.5,67,0.00,,,0.01,WUHU216HW,2013-04-11 05:17:00,
2013-04-10 22:22:00,45.2,33.7,30.21,West,270,3.8,4.0,64,0.00,,,0.01,WUHU216HW,2013-04-11 05:22:00,
2013-04-10 22:27:00,45.2,34.5,30.21,WSW,248,4.7,4.7,66,0.00,,,0.01,WUHU216HW,2013-04-11 05:27:00,
2013-04-10 22:32:00,45.2,34.5,30.21,West,265,1.1,4.7,66,0.00,,,0.01,WUHU216HW,2013-04-11 05:32:00,
2013-04-10 22:37:00,45.2,34.8,30.21,WSW,248,1.1,4.7,67,0.00,,,0.01,WUHU216HW,2013-04-11 05:37:00,
2013-04-10 22:42:00,45.0,35.1,30.22,WSW,248,1.6,2.5,68,0.00,,,0.01,WUHU216HW,2013-04-11 05:42:00,
2013-04-10 22:47:00,45.0,35.1,30.22,WSW,248,1.3,2.5,68,0.00,,,0.01,WUHU216HW,2013-04-11 05:47:00,
2013-04-10 22:52:00,44.6,34.8,30.22,South,180,0.5,1.6,68,0.00,,,0.01,WUHU216HW,2013-04-11 05:52:00,
2013-04-10 22:57:00,44.5,34.6,30.22,SE,135,0.9,1.3,68,0.00,,,0.01,WUHU216HW,2013-04-11 05:57:00,
2013-04-10 23:03:00,44.3,34.4,30.22,SE,135,0.2,1.1,68,0.00,,,0.01,WUHU216HW,2013-04-11 06:03:00,
2013-04-10 23:08:00,44.1,34.2,30.22,SE,135,0.6,1.1,68,0.00,,,0.01,WUHU216HW,2013-04-11 06:08:00,
2013-04-10 23:13:00,43.9,34.0,30.22,SE,135,0.0,1.1,68,0.00,,,0.01,WUHU216HW,2013-04-11 06:13:00,
2013-04-10 23:18:00,43.7,33.8,30.22,SW,232,1.9,2.2,68,0.00,,,0.01,WUHU216HW,2013-04-11 06:18:00,
2013-04-10 23:23:00,43.7,32.3,30.22,WSW,248,1.8,2.2,64,0.00,,,0.01,WUHU216HW,2013-04-11 06:23:00,
2013-04-10 23:28:00,43.9,32.5,30.22,WSW,248,2.5,3.1,64,0.00,,,0.01,WUHU216HW,2013-04-11 06:28:00,
2013-04-10 23:33:00,43.9,28.3,30.22,WSW,248,2.7,3.1,54,0.00,,,0.01,WUHU216HW,2013-04-11 06:33:00,
2013-04-10 23:38:00,43.9,29.6,30.22,WSW,248,2.5,3.1,57,0.00,,,0.01,WUHU216HW,2013-04-11 06:38:00,
2013-04-10 23:43:00,43.9,31.3,30.22,WSW,248,2.9,3.1,61,0.00,,,0.01,WUHU216HW,2013-04-11 06:43:00,
2013-04-10 23:48:00,44.1,30.7,30.22,WSW,247,2.3,3.6,59,0.00,,,0.01,WUHU216HW,2013-04-11 06:48:00,
2013-04-10 23:53:00,44.1,28.9,30.22,WSW,253,2.9,3.6,55,0.00,,,0.01,WUHU216HW,2013-04-11 06:53:00,
2013-04-10 23:58:00,44.1,29.3,30.22,WSW,238,4.3,4.5,56,0.00,,,0.01,WUHU216HW,2013-04-11 06:58:00,